User: anonymous   Login
Location: Unspecified
(0.0000°N, 0.0000°E)
Time: 13:23:51
(UTC+00:00)
Language:

USA 149 - Orbit

View from above orbital plane
View from above orbital plane
View from above satellite
View from above satellite

Ground track
Ground track

The orbit data is extracted from the following two-line orbital elements,

1 26356U 00024A   21015.70978721  .00000092  00000-0  00000-0 0  9999
2 26356  11.7031  24.9587 0000861  12.4485 168.6996  1.00288791 13073
Epoch (UTC): 15 January 2021 17:02:05
Eccentricity: 0.0000861
inclination: 11.7031°
perigee height: 35778 km
apogee height: 35785 km
right ascension of ascending node: 24.9587°
argument of perigee: 12.4485°
revolutions per day: 1.00288791
mean anomaly at epoch: 168.6996°
orbit number at epoch: 1307

The dashed part of the orbit path shows where the satellite is in the earth's shadow,  

DLR